TimeCDT,TemperatureF,Dew PointF,Humidity,Sea Level PressureIn,VisibilityMPH,Wind Direction,Wind SpeedMPH,Gust SpeedMPH,PrecipitationIn,Events,Conditions,WindDirDegrees,DateUTC
12:15 AM,21.2,19.4,93,30.27,10.0,South,3.5,-,N/A,,Clear,190,2014-03-09 06:15:00
12:35 AM,21.2,19.4,93,30.28,10.0,SSW,4.6,-,N/A,,Clear,210,2014-03-09 06:35:00
12:55 AM,23.0,19.4,86,30.28,10.0,SSW,8.1,-,N/A,,Clear,200,2014-03-09 06:55:00
1:15 AM,23.0,19.4,86,30.27,10.0,South,8.1,-,N/A,,Clear,190,2014-03-09 07:15:00
1:35 AM,23.0,19.4,86,30.28,10.0,SSW,6.9,-,N/A,,Clear,200,2014-03-09 07:35:00
1:55 AM,23.0,19.4,86,30.26,10.0,South,8.1,-,N/A,,Clear,190,2014-03-09 07:55:00
3:15 AM,23.0,19.4,86,30.25,10.0,SSW,9.2,-,N/A,,Clear,200,2014-03-09 08:15:00
3:30 AM,23.0,19.4,86,30.24,10.0,SSW,10.4,-,N/A,,Clear,200,2014-03-09 08:30:00
3:55 AM,23.0,19.4,86,30.23,10.0,South,9.2,-,N/A,,Clear,190,2014-03-09 08:55:00
4:15 AM,23.0,19.4,86,30.22,10.0,South,9.2,-,N/A,,Clear,190,2014-03-09 09:15:00
4:35 AM,23.0,19.4,86,30.21,10.0,South,9.2,-,N/A,,Clear,190,2014-03-09 09:35:00
4:55 AM,23.0,19.4,86,30.21,10.0,SSW,10.4,-,N/A,,Clear,200,2014-03-09 09:55:00
5:15 AM,23.0,19.4,86,30.20,10.0,SSW,11.5,-,N/A,,Clear,200,2014-03-09 10:15:00
5:35 AM,23.0,19.4,86,30.19,10.0,South,12.7,-,N/A,,Clear,190,2014-03-09 10:35:00
5:55 AM,23.0,19.4,86,30.19,10.0,South,13.8,-,N/A,,Clear,190,2014-03-09 10:55:00
6:15 AM,24.8,19.4,80,30.19,10.0,SSW,11.5,-,N/A,,Clear,200,2014-03-09 11:15:00
6:35 AM,24.8,19.4,80,30.17,10.0,SSW,12.7,-,N/A,,Clear,200,2014-03-09 11:35:00
6:55 AM,24.8,19.4,80,30.17,10.0,South,12.7,-,N/A,,Clear,190,2014-03-09 11:55:00
7:15 AM,24.8,19.4,80,30.16,10.0,South,11.5,-,N/A,,Clear,190,2014-03-09 12:15:00
7:35 AM,24.8,19.4,80,30.15,10.0,SSW,11.5,-,N/A,,Clear,200,2014-03-09 12:35:00
7:55 AM,24.8,19.4,80,30.15,10.0,SSW,11.5,-,N/A,,Clear,200,2014-03-09 12:55:00
8:15 AM,24.8,21.2,86,30.15,10.0,SSW,11.5,-,N/A,,Clear,200,2014-03-09 13:15:00
8:35 AM,26.6,21.2,80,30.14,10.0,South,11.5,-,N/A,,Clear,190,2014-03-09 13:35:00
8:55 AM,28.4,23.0,80,30.12,10.0,South,12.7,-,N/A,,Clear,190,2014-03-09 13:55:00
9:15 AM,28.4,23.0,80,30.11,10.0,South,13.8,-,N/A,,Clear,190,2014-03-09 14:15:00
9:35 AM,32.0,24.8,75,30.10,10.0,SSW,13.8,-,N/A,,Clear,200,2014-03-09 14:35:00
9:55 AM,35.6,26.6,70,30.09,10.0,SSW,18.4,-,N/A,,Clear,200,2014-03-09 14:55:00
10:15 AM,35.6,28.4,75,30.07,10.0,SSW,16.1,-,N/A,,Clear,200,2014-03-09 15:15:00
10:35 AM,37.4,26.6,65,30.05,10.0,SSW,23.0,-,N/A,,Clear,210,2014-03-09 15:35:00
10:55 AM,39.2,28.4,65,30.04,10.0,SSW,18.4,-,N/A,,Clear,200,2014-03-09 15:55:00
11:15 AM,41.0,30.2,65,30.03,10.0,SSW,18.4,-,N/A,,Clear,200,2014-03-09 16:15:00
11:35 AM,44.6,30.2,57,30.02,10.0,SSW,21.9,-,N/A,,Clear,200,2014-03-09 16:35:00
11:55 AM,46.4,30.2,53,30.00,10.0,SSW,16.1,31.1,N/A,,Clear,200,2014-03-09 16:55:00
12:15 PM,50.0,30.2,47,29.98,10.0,SSW,21.9,29.9,N/A,,Clear,200,2014-03-09 17:15:00
12:35 PM,51.8,32.0,47,29.98,10.0,SSW,17.3,28.8,N/A,,Clear,210,2014-03-09 17:35:00
12:55 PM,53.6,33.8,47,29.97,10.0,SW,24.2,31.1,N/A,,Clear,220,2014-03-09 17:55:00
1:15 PM,55.4,33.8,44,29.97,10.0,SW,19.6,32.2,N/A,,Clear,220,2014-03-09 18:15:00
1:35 PM,57.2,33.8,41,29.94,10.0,SW,27.6,39.1,N/A,,Clear,220,2014-03-09 18:35:00
1:55 PM,59.0,33.8,39,29.92,10.0,SW,29.9,39.1,N/A,,Clear,220,2014-03-09 18:55:00
2:15 PM,60.8,33.8,36,29.91,10.0,SW,27.6,39.1,N/A,,Clear,220,2014-03-09 19:15:00
2:35 PM,62.6,35.6,37,29.89,10.0,SW,28.8,36.8,N/A,,Clear,220,2014-03-09 19:35:00
2:55 PM,62.6,33.8,34,29.88,10.0,SW,28.8,34.5,N/A,,Clear,220,2014-03-09 19:55:00
3:15 PM,62.6,35.6,37,29.87,10.0,SW,24.2,35.7,N/A,,Clear,220,2014-03-09 20:15:00
3:35 PM,64.4,35.6,34,29.86,10.0,SW,25.3,32.2,N/A,,Clear,220,2014-03-09 20:35:00
3:55 PM,64.4,35.6,34,29.85,10.0,SW,25.3,36.8,N/A,,Clear,220,2014-03-09 20:55:00
4:15 PM,66.2,33.8,30,29.85,10.0,SW,21.9,29.9,N/A,,Clear,230,2014-03-09 21:15:00
4:35 PM,66.2,35.6,32,29.85,10.0,SW,19.6,28.8,N/A,,Clear,220,2014-03-09 21:35:00
4:55 PM,66.2,35.6,32,29.84,10.0,SW,21.9,28.8,N/A,,Clear,220,2014-03-09 21:55:00
5:15 PM,66.2,35.6,32,29.84,10.0,SW,18.4,25.3,N/A,,Clear,220,2014-03-09 22:15:00
5:35 PM,62.6,35.6,37,29.83,10.0,SW,17.3,24.2,N/A,,Clear,220,2014-03-09 22:35:00
5:55 PM,60.8,35.6,39,29.84,10.0,SSW,11.5,-,N/A,,Clear,210,2014-03-09 22:55:00
6:15 PM,60.8,35.6,39,29.84,10.0,SW,9.2,-,N/A,,Clear,220,2014-03-09 23:15:00
6:35 PM,57.2,35.6,44,29.83,10.0,SSW,10.4,-,N/A,,Clear,210,2014-03-09 23:35:00
6:55 PM,57.2,35.6,44,29.83,10.0,SW,10.4,-,N/A,,Clear,220,2014-03-09 23:55:00
7:15 PM,53.6,35.6,51,29.84,10.0,SW,10.4,-,N/A,,Clear,220,2014-03-10 00:15:00
7:35 PM,51.8,33.8,50,29.84,10.0,SW,8.1,-,N/A,,Clear,230,2014-03-10 00:35:00
7:55 PM,51.8,33.8,50,29.84,10.0,SW,9.2,-,N/A,,Clear,230,2014-03-10 00:55:00
8:15 PM,51.8,33.8,50,29.83,10.0,SW,9.2,-,N/A,,Clear,220,2014-03-10 01:15:00
8:35 PM,50.0,33.8,54,29.83,10.0,SW,8.1,-,N/A,,Clear,220,2014-03-10 01:35:00
8:55 PM,48.2,32.0,54,29.84,10.0,SW,9.2,-,N/A,,Clear,220,2014-03-10 01:55:00
9:15 PM,50.0,32.0,50,29.84,10.0,SSW,5.8,-,N/A,,Clear,210,2014-03-10 02:15:00
9:35 PM,50.0,32.0,50,29.84,10.0,SSW,4.6,-,N/A,,Clear,200,2014-03-10 02:35:00
9:55 PM,50.0,32.0,50,29.84,10.0,South,4.6,-,N/A,,Clear,180,2014-03-10 02:55:00
10:15 PM,48.2,32.0,54,29.85,10.0,South,4.6,-,N/A,,Clear,180,2014-03-10 03:15:00
10:35 PM,48.2,32.0,54,29.85,10.0,South,6.9,-,N/A,,Clear,170,2014-03-10 03:35:00
10:55 PM,46.4,32.0,57,29.84,10.0,South,4.6,-,N/A,,Clear,170,2014-03-10 03:55:00
11:15 PM,46.4,30.2,53,29.84,10.0,South,6.9,-,N/A,,Clear,180,2014-03-10 04:15:00
11:35 PM,44.6,30.2,57,29.84,10.0,South,4.6,-,N/A,,Clear,190,2014-03-10 04:35:00
11:55 PM,42.8,30.2,61,29.84,10.0,SSW,6.9,-,N/A,,Clear,200,2014-03-10 04:55:00
12:15 AM,42.8,30.2,61,29.83,10.0,SSW,5.8,-,N/A,,Clear,200,2014-03-10 05:15:00
12:35 AM,42.8,32.0,66,29.82,10.0,SSW,8.1,-,N/A,,Clear,200,2014-03-10 05:35:00
12:55 AM,42.8,32.0,66,29.82,10.0,South,8.1,-,N/A,,Clear,190,2014-03-10 05:55:00